Weather History for Coldwater, MI

Change the Weather History Date:

Thursday, May 30, 2013

  Actual Average (KJYM) Record (KJYM)
Temperature  
Mean Temperature 77 °F -  
Max Temperature 84 °F 74 °F 90 °F (1953)
Min Temperature 70 °F 51 °F 32 °F (1961)
Cooling Degree Days 12    
Growing Degree Days 27 (Base 50)    
Moisture  
Dew Point 63 °F    
Average Humidity 63    
Maximum Humidity 75    
Minimum Humidity 49    
Precipitation  
Precipitation 0.00 in - - ()
Sea Level Pressure  
Sea Level Pressure 30.01 in    
Wind  
Wind Speed 7 mph (South)    
Max Wind Speed 17 mph    
Max Gust Speed 26 mph    
Visibility 10 miles    
Events      
Averages and records for this station are not official NWS values.
T = Trace of Precipitation, MM = Missing Value Source: NWS Daily Summary

Daily Weather History Graph

Daily Weather History Graph

Search for Another Location

Airport:

Trip Planner

Search our weather history database for the weather conditions in past years. The results will help you decide how hot, cold, wet, or windy it might be!

Date:

Astronomy

May. 30, 2013 Rise Set
Actual Time 6:08 AM EDT 9:07 PM EDT
Civil Twilight 5:34 AM EDT 9:41 PM EDT
Nautical Twilight 4:52 AM EDT 10:23 PM EDT
Astronomical Twilight 4:02 AM EDT 11:13 PM EDT
Moon 1:04 AM EDT (5/30) 12:19 PM EDT (5/30)
Length of Visible Light 16h 06m
Length of Day
14h 59m
Waning Gibbous, 62% of the Moon is Illuminated
May 30
Waning Gibbous
May 31
Last Quarter
Jun 8
New
Jun 16
First Quarter
Jun 23
Full

Hourly Weather History & Observations

Time (EDT) Temp. Heat Index Dew Point Humidity Pressure Visibility Wind Dir Wind Speed Gust Speed Precip Events Conditions
12:15 AM 72.9 °F - 59.9 °F 64% 30.00 in 10.0 mi South 5.8 mph - N/A   Clear
12:35 AM 71.2 °F - 60.3 °F 68% 30.01 in 10.0 mi South 5.8 mph - N/A   Clear
12:55 AM 72.0 °F - 59.4 °F 64% 30.01 in 10.0 mi South 4.6 mph - N/A   Clear
1:14 AM 72.1 °F - 58.8 °F 63% 30.01 in 10.0 mi South 4.6 mph - N/A   Clear
1:35 AM 72.9 °F - 58.3 °F 60% 30.01 in 10.0 mi South 6.9 mph - N/A   Clear
1:55 AM 71.8 °F - 58.8 °F 64% 30.02 in 10.0 mi South 6.9 mph - N/A   Clear
2:15 AM 71.6 °F - 58.5 °F 63% 30.02 in 10.0 mi South 5.8 mph - N/A   Clear
2:35 AM 71.6 °F - 58.6 °F 64% 30.02 in 10.0 mi South 4.6 mph - N/A   Clear
2:54 AM 71.8 °F - 58.6 °F 63% 30.03 in 10.0 mi South 5.8 mph - N/A   Clear
3:15 AM 71.8 °F - 58.6 °F 63% 30.03 in 10.0 mi South 5.8 mph - N/A   Clear
3:35 AM 71.1 °F - 59.0 °F 66% 30.02 in 10.0 mi South 4.6 mph - N/A   Clear
3:54 AM 70.9 °F - 59.0 °F 66% 30.02 in 10.0 mi South 3.5 mph - N/A   Clear
4:15 AM 70.7 °F - 59.2 °F 67% 30.02 in 10.0 mi South 5.8 mph - N/A   Clear
4:35 AM 70.7 °F - 59.5 °F 68% 30.02 in 10.0 mi South 4.6 mph - N/A   Clear
4:54 AM 70.7 °F - 59.5 °F 68% 30.02 in 10.0 mi South 5.8 mph - N/A   Clear
5:15 AM 70.7 °F - 59.9 °F 69% 30.03 in 10.0 mi South 4.6 mph - N/A   Clear
5:35 AM 70.3 °F - 59.9 °F 69% 30.03 in 10.0 mi South 8.1 mph - N/A   Clear
5:55 AM 70.7 °F - 60.1 °F 69% 30.03 in 10.0 mi South 6.9 mph - N/A   Mostly Cloudy
6:15 AM 70.9 °F - 60.3 °F 69% 30.04 in 10.0 mi South 6.9 mph - N/A   Overcast
6:35 AM 70.5 °F - 60.4 °F 70% 30.04 in 10.0 mi South 5.8 mph - N/A   Scattered Clouds
6:55 AM 70.0 °F - 60.8 °F 73% 30.04 in 10.0 mi South 5.8 mph - N/A   Clear
7:15 AM 70.5 °F - 61.0 °F 72% 30.04 in 10.0 mi South 4.6 mph - N/A   Clear
7:35 AM 70.7 °F - 61.2 °F 72% 30.04 in 10.0 mi South 5.8 mph - N/A   Clear
7:55 AM 71.1 °F - 61.7 °F 72% 30.04 in 10.0 mi South 8.1 mph - N/A   Clear
8:15 AM 71.8 °F - 61.7 °F 70% 30.05 in 10.0 mi South 6.9 mph - N/A   Clear
8:35 AM 73.6 °F - 62.4 °F 68% 30.05 in 10.0 mi South 6.9 mph - N/A   Clear
8:55 AM 74.3 °F - 62.6 °F 67% 30.05 in 10.0 mi South 8.1 mph - N/A   Clear
9:15 AM 75.7 °F - 63.7 °F 66% 30.05 in 10.0 mi SSW 9.2 mph - N/A   Clear
9:35 AM 77.2 °F - 64.4 °F 65% 30.05 in 10.0 mi SSW 6.9 mph - N/A   Scattered Clouds
9:55 AM 77.9 °F - 64.9 °F 64% 30.05 in 10.0 mi SSW 10.4 mph 18.4 mph N/A   Clear
10:15 AM 78.4 °F - 65.1 °F 63% 30.05 in 10.0 mi SSW 9.2 mph 20.7 mph N/A   Clear
10:35 AM 79.0 °F - 65.8 °F 64% 30.04 in 10.0 mi SSW 16.1 mph 26.5 mph N/A   Scattered Clouds
10:55 AM 79.9 °F - 65.7 °F 62% 30.04 in 10.0 mi SSW 9.2 mph 16.1 mph N/A   Scattered Clouds
11:15 AM 79.0 °F - 65.8 °F 64% 30.04 in 10.0 mi SSW 13.8 mph 21.9 mph N/A   Scattered Clouds
11:35 AM 79.5 °F - 65.3 °F 62% 30.04 in 10.0 mi SSW 17.3 mph 23.0 mph N/A   Scattered Clouds
11:55 AM 80.4 °F 82.4 °F 66.0 °F 61% 30.04 in 10.0 mi SSW 11.5 mph 19.6 mph N/A   Scattered Clouds
12:15 PM 81.7 °F 83.5 °F 65.3 °F 57% 30.04 in 10.0 mi South 12.7 mph 21.9 mph N/A   Mostly Cloudy
12:35 PM 81.9 °F 83.7 °F 65.3 °F 57% 30.04 in 10.0 mi SSW 12.7 mph 23.0 mph N/A   Mostly Cloudy
12:54 PM 82.0 °F 83.8 °F 64.8 °F 56% 30.03 in 10.0 mi SSW 13.8 mph 20.7 mph N/A   Scattered Clouds
1:15 PM 82.6 °F 83.9 °F 63.7 °F 53% 30.03 in 10.0 mi SW 12.7 mph 25.3 mph N/A   Scattered Clouds
1:35 PM 82.4 °F 83.9 °F 64.2 °F 54% 30.02 in 10.0 mi South 13.8 mph 20.7 mph N/A   Scattered Clouds
1:55 PM 84.0 °F 85.2 °F 63.5 °F 50% 30.02 in 10.0 mi SSW 11.5 mph 24.2 mph N/A   Scattered Clouds
2:15 PM 82.8 °F 84.0 °F 63.5 °F 52% 30.01 in 10.0 mi SSW 11.5 mph 21.9 mph N/A   Mostly Cloudy
2:34 PM 82.2 °F 83.5 °F 63.3 °F 53% 30.01 in 10.0 mi SW 11.5 mph 23.0 mph N/A   Scattered Clouds
2:55 PM 82.2 °F 83.5 °F 63.3 °F 53% 30.01 in 10.0 mi SSW 15.0 mph 25.3 mph N/A   Scattered Clouds
3:15 PM 82.2 °F 83.7 °F 63.9 °F 54% 30.00 in 10.0 mi SSW 11.5 mph 19.6 mph N/A   Scattered Clouds
3:35 PM 84.0 °F 84.9 °F 63.1 °F 49% 30.00 in 10.0 mi SSW 16.1 mph 25.3 mph N/A   Scattered Clouds
3:55 PM 83.3 °F 84.6 °F 64.2 °F 52% 30.00 in 10.0 mi South 10.4 mph 21.9 mph N/A   Scattered Clouds
4:14 PM 83.8 °F 85.1 °F 63.7 °F 51% 29.99 in 10.0 mi South 15.0 mph 21.9 mph N/A   Clear
4:35 PM 83.3 °F 84.6 °F 64.0 °F 52% 29.98 in 10.0 mi South 10.4 mph 17.3 mph N/A   Clear
4:55 PM 83.3 °F 84.6 °F 64.0 °F 52% 29.97 in 10.0 mi South 6.9 mph 17.3 mph N/A   Clear
5:15 PM 82.4 °F 83.9 °F 64.0 °F 54% 29.96 in 10.0 mi South 9.2 mph 16.1 mph N/A   Scattered Clouds
5:35 PM 82.8 °F 84.2 °F 63.9 °F 53% 29.96 in 10.0 mi South 12.7 mph 19.6 mph N/A   Clear
5:55 PM 82.8 °F 83.6 °F 62.2 °F 50% 29.95 in 10.0 mi SSW 12.7 mph 21.9 mph N/A   Clear
6:15 PM 81.5 °F 82.5 °F 62.2 °F 52% 29.96 in 10.0 mi SSW 9.2 mph 19.6 mph N/A   Scattered Clouds
6:35 PM 80.8 °F 82.0 °F 62.8 °F 54% 29.96 in 10.0 mi SW 9.2 mph - N/A   Scattered Clouds
6:55 PM 76.6 °F - 64.9 °F 67% 29.97 in 10.0 mi SSW 9.2 mph - N/A   Scattered Clouds
7:15 PM 76.1 °F - 67.6 °F 75% 29.96 in 10.0 mi SSW 3.5 mph - N/A   Scattered Clouds
7:35 PM 76.8 °F - 68.0 °F 74% 29.96 in 10.0 mi South 4.6 mph - N/A   Clear
7:54 PM 78.6 °F - 68.2 °F 70% 29.95 in 10.0 mi SSE 3.5 mph - N/A   Clear
8:15 PM 79.3 °F - 64.9 °F 61% 29.95 in 10.0 mi South 5.8 mph - N/A   Clear
8:35 PM 78.1 °F - 63.5 °F 61% 29.96 in 10.0 mi South 5.8 mph - N/A   Clear
8:54 PM 77.0 °F - 64.2 °F 65% 29.95 in 10.0 mi SSE 4.6 mph - N/A   Clear
9:15 PM 75.9 °F - 64.8 °F 68% 29.97 in 10.0 mi South 3.5 mph - N/A   Clear
9:35 PM 75.7 °F - 64.9 °F 69% 29.97 in 10.0 mi SSE 8.1 mph - N/A   Mostly Cloudy
9:55 PM 75.9 °F - 64.6 °F 68% 29.98 in 10.0 mi SSE 9.2 mph - N/A   Scattered Clouds
10:15 PM 75.2 °F - 63.3 °F 66% 29.98 in 10.0 mi South 6.9 mph - N/A   Clear
10:34 PM 74.5 °F - 62.4 °F 66% 29.99 in 10.0 mi South 10.4 mph - N/A   Scattered Clouds
10:55 PM 74.5 °F - 62.1 °F 65% 29.99 in 10.0 mi South 6.9 mph - N/A   Scattered Clouds
11:15 PM 74.3 °F - 62.2 °F 66% 29.98 in 10.0 mi South 6.9 mph - N/A   Clear
11:34 PM 74.1 °F - 62.6 °F 67% 29.99 in 10.0 mi South 8.1 mph - N/A   Clear
11:55 PM 74.8 °F - 62.8 °F 66% 29.99 in 10.0 mi South 9.2 mph - N/A   Clear